COSMOS 2251 DEB, 33848

Orbit data source: Space-Track

COSMOS 2251 DEB, 33848 is space debris in LEO originally from a launch on Wed, 16 Jun 1993 UTC launched from the Plesetsk Missile And Space Complex (PKMTR). The debris from Iridium 33, an American commercial communications satellite, has been tracked extensively since its accidental collision with the defunct Russian satellite Cosmos 2251 in 2009. This event, occurring at high speed in low Earth orbit (LEO), generated thousands of pieces of space debris, significantly increasing the risk of further collisions. The Iridium 33 debris cloud has impacted space traffic management and orbital debris mitigation strategies, making it a subject of ongoing study in space situational awareness.

Loading next visibility...
Identifier
33848, 1993-036CR
Orbit
LEO
Country
Flag of CISCIS
Related business
Manufacturer
Unknown
Mission
Spacecraft
Bus & Motor
Unknown
Mass
Unknown
Launch date (UTC)
1993-06-16 (33 years ago)
Launch vehicle
Unknown
Launch site
Plesetsk Missile And Space Complex (PKMTR)
Object type
Payload
Rocket body
Debris
Shape & HBR
Unknown shape, 0.1 m
Radar Cross Section
Medium (>0.1 m² and <1 m²)

Expand to show TLE details & history
Last TLE update: 10 hours ago

TLE from 10 hours ago
0 COSMOS 2251 DEB
1 33848U 93036CR  26207.23729211  .00002102  00000-0  59677-3 0  9993
2 33848  74.0305 297.5065 0043998 303.2725  85.9513 14.45503451910885
Epoch: 2026-07-26T05:41Z
TLE epoch observation values (Epoch: 2026-07-26T05:41:42.038Z)
Latitude
28.52405°
Longitude
-82.95731°
Altitude
741.515 km
Speed
7.488 km/s
True Right ascension
20h 25m 37s
True Declination
28° 22' 47"
Sunlit
Object was in full shadow at epoch
Visualization orbit readout
Latitude
Unknown
Longitude
Unknown
Altitude
Unknown
Speed
Unknown
Apparent Right ascension
Unknown
Apparent Declination
Unknown
Sunlit
N/A
Visualization observer readout
Local Sidereal Time
05:16:13
Azimuth
Unknown
Elevation
Unknown
Doppler factor
Unknown
Orbital elements
Apogee altitude
769.296 km
Perigee altitude
706.677 km
Semi-major axis
7,116.124 km
Eccentricity
0.0044
Inclination
74.0305°
RAAN
297.5065°
Arg. of periapsis
303.2725°
True anomaly
86.45441°
Mean anomaly
85.9513°
Eccentric anomaly
86.20284°
Mean motion
3.61558 °/min
Orbital period
99.57 mins
BSTAR
0.00059677

Documentation

Showing up to 5 results
|